Date String (YYYY-MM-DD hh:mm:ss) UTC,Instrument flags,Ambient pressure (hPa),Sample flow (lpm),Bypass flow (lpm),Sample temperature (°C),Ambient temperature (°C),ASC tube jacket temperature (°C),LED temperature (°C),Box temperature (°C),Sample RH (%),Span deviation,Mass concentration (μg/m³),Mass concentration (μg/m³),Mass concentration (μg/m³)
DateTimeUTC,F1_M11,P_M11,Q1_M11,Q2_M11,T1_M11,T2_M11,T3_M11,T4_M11,T5_M11,U1_M11,ZSPAN_M11,X0_M11,X2_M11,X1_M11
2021-09-19 16:00:00,,0824.1,5.00,0.00,29.6,28.6,00.0,38.5,31.4,17.3,-000.6,0006.19,0003.81,0003.46
2021-09-19 16:01:00,,0824.2,5.00,0.00,29.6,28.7,00.0,38.6,31.4,17.4,-000.5,0006.07,0003.78,0003.45
2021-09-19 16:02:00,,0824.1,5.01,0.00,29.6,27.8,00.0,38.6,31.2,17.6,0000.0,0006.24,0003.81,0003.43
2021-09-19 16:03:00,,0824.1,4.98,0.00,29.5,26.2,00.0,38.6,30.7,17.8,0000.0,0006.22,0003.80,0003.41
2021-09-19 16:04:00,,0824.1,5.01,0.00,29.4,26.3,00.0,38.5,30.8,17.9,0000.1,0005.93,0003.74,0003.38
2021-09-19 16:05:00,,0824.1,5.00,0.00,29.3,26.7,00.0,38.5,30.9,17.5,0001.2,0005.86,0003.73,0003.37
2021-09-19 16:06:00,,0824.1,5.00,0.00,29.3,27.1,00.0,38.5,30.9,17.1,0000.6,0005.74,0003.70,0003.37
2021-09-19 16:07:00,,0824.1,5.01,0.00,29.3,27.5,00.0,38.5,31.0,17.2,0001.3,0006.12,0003.65,0003.35
2021-09-19 16:08:00,,0824.1,5.00,0.00,29.4,27.8,00.0,38.4,31.1,17.1,0000.7,0006.12,0003.63,0003.33
2021-09-19 16:09:00,,0823.9,4.99,0.00,29.4,28.0,00.0,38.4,31.2,17.1,0000.3,0005.93,0003.60,0003.32
2021-09-19 16:10:00,,0823.7,5.01,0.00,29.4,28.2,00.0,38.5,31.2,17.6,0001.3,0005.79,0003.58,0003.30
2021-09-19 16:11:00,,0823.8,4.99,0.00,29.5,28.4,00.0,38.5,31.3,17.9,0002.6,0005.75,0003.55,0003.28
2021-09-19 16:12:00,,0824.1,5.00,0.00,29.5,28.5,00.0,38.5,31.3,17.8,0002.0,0005.87,0003.54,0003.25
2021-09-19 16:13:00,,0824.2,5.02,0.00,29.6,28.7,00.0,38.5,31.4,17.7,0000.4,0005.75,0003.48,0003.23
2021-09-19 16:14:00,,0824.2,5.00,0.00,29.6,28.8,00.0,38.5,31.5,17.6,0000.3,0005.83,0003.44,0003.20
2021-09-19 16:15:00,,0824.2,4.99,0.00,29.6,28.5,00.0,38.6,31.4,17.6,-000.6,0006.03,0003.41,0003.17
2021-09-19 16:16:00,,0824.2,5.00,0.00,29.5,26.8,00.0,38.6,31.0,17.3,-000.6,0005.98,0003.40,0003.16
2021-09-19 16:17:00,,0824.1,5.00,0.00,29.4,26.3,00.0,38.5,30.8,17.3,-000.1,0005.97,0003.38,0003.14
2021-09-19 16:18:00,,0824.1,4.99,0.00,29.4,26.7,00.0,38.5,30.9,16.7,0000.1,0005.41,0003.37,0003.12
2021-09-19 16:19:00,,0824.1,5.00,0.00,29.4,27.1,00.0,38.5,31.0,16.4,0000.5,0005.31,0003.35,0003.09
2021-09-19 16:20:00,,0824.1,5.00,0.00,29.4,27.4,00.0,38.5,31.1,16.3,0000.6,0005.34,0003.34,0003.05
2021-09-19 16:21:00,,0824.0,5.01,0.00,29.4,27.8,00.0,38.5,31.2,16.4,0000.0,0005.36,0003.32,0003.01
2021-09-19 16:22:00,,0824.0,5.00,0.00,29.4,28.0,00.0,38.5,31.2,16.4,0002.2,0005.42,0003.33,0003.00
2021-09-19 16:23:00,,0824.0,5.00,0.00,29.5,28.3,00.0,38.5,31.3,16.5,0001.1,0005.71,0003.31,0002.98
2021-09-19 16:24:00,,0823.9,5.00,0.00,29.5,28.4,00.0,38.5,31.4,16.6,0000.0,0005.70,0003.30,0002.97
2021-09-19 16:25:00,,0823.8,5.00,0.00,29.6,28.6,00.0,38.5,31.4,16.4,0000.0,0005.73,0003.31,0002.98
2021-09-19 16:26:00,,0823.7,5.01,0.00,29.6,28.7,00.0,38.5,31.5,16.5,0000.0,0005.56,0003.32,0002.98
2021-09-19 16:27:00,,0823.8,4.99,0.00,29.7,28.7,00.0,38.6,31.5,16.5,0000.0,0005.53,0003.31,0002.97
2021-09-19 16:28:00,,0823.9,5.01,0.00,29.6,27.2,00.0,38.6,31.1,16.7,0000.0,0005.81,0003.31,0002.98
2021-09-19 16:29:00,,0824.0,5.00,0.00,29.4,26.2,00.0,38.5,30.8,16.9,0000.0,0006.11,0003.31,0002.98
2021-09-19 16:30:00,,0824.0,5.00,0.00,29.4,26.5,00.0,38.5,30.9,17.2,0000.3,0006.06,0003.32,0003.01
2021-09-19 16:31:00,,0823.9,5.00,0.00,29.4,26.9,00.0,38.5,31.0,17.1,0000.9,0006.04,0003.32,0003.04
2021-09-19 16:32:00,,0824.0,4.99,0.00,29.4,27.3,00.0,38.5,31.0,17.1,0000.7,0006.07,0003.34,0003.08
2021-09-19 16:33:00,,0824.0,4.99,0.00,29.4,27.7,00.0,38.5,31.1,17.3,0000.6,0006.14,0003.37,0003.11
2021-09-19 16:34:00,,0824.0,5.00,0.00,29.4,28.0,00.0,38.5,31.2,17.5,-000.4,0005.75,0003.40,0003.13
2021-09-19 16:35:00,,0824.0,5.00,0.00,29.5,28.2,00.0,38.5,31.3,17.6,-000.5,0005.70,0003.43,0003.15
2021-09-19 16:36:00,,0824.0,4.99,0.00,29.5,28.4,00.0,38.5,31.4,17.2,-000.3,0005.57,0003.44,0003.17
2021-09-19 16:37:00,,0824.0,5.00,0.00,29.6,28.6,00.0,38.5,31.4,17.0,0000.0,0005.51,0003.45,0003.17
2021-09-19 16:38:00,,0824.1,5.00,0.00,29.6,28.2,00.0,38.5,31.3,17.0,-000.1,0005.55,0003.47,0003.19
2021-09-19 16:39:00,,0824.0,5.00,0.00,29.5,26.6,00.0,38.5,30.9,16.5,-000.3,0005.35,0003.47,0003.20
2021-09-19 16:40:00,,0824.0,5.00,0.00,29.4,26.2,00.0,38.5,30.8,16.4,0000.0,0005.06,0003.49,0003.21
2021-09-19 16:41:00,,0823.9,4.99,0.00,29.3,26.6,00.0,38.5,30.9,16.5,0000.0,0005.01,0003.49,0003.22
2021-09-19 16:42:00,,0823.8,5.00,0.00,29.3,27.0,00.0,38.5,31.0,16.1,0000.0,0004.91,0003.49,0003.22
2021-09-19 16:43:00,,0823.7,5.01,0.00,29.3,27.4,00.0,38.4,31.1,16.2,0000.0,0005.04,0003.54,0003.25
2021-09-19 16:44:00,,0823.7,5.01,0.00,29.4,27.7,00.0,38.4,31.1,16.2,0000.0,0005.05,0003.54,0003.26
2021-09-19 16:45:00,,0823.8,4.99,0.00,29.4,28.0,00.0,38.4,31.2,16.6,0000.0,0004.96,0003.53,0003.28
2021-09-19 16:46:00,,0823.8,4.99,0.00,29.4,28.3,00.0,38.4,31.3,16.5,0000.0,0004.96,0003.54,0003.29
2021-09-19 16:47:00,,0823.8,5.01,0.00,29.5,28.5,00.0,38.4,31.4,16.6,0000.0,0005.15,0003.55,0003.30
2021-09-19 16:48:00,,0823.8,4.99,0.00,29.5,28.3,00.0,38.5,31.3,16.3,0000.0,0006.17,0003.57,0003.33
2021-09-19 16:49:00,,0823.8,5.00,0.00,29.5,26.7,00.0,38.5,30.9,16.6,0000.0,0006.61,0003.61,0003.35
2021-09-19 16:50:00,,0823.8,5.00,0.00,29.3,26.1,00.0,38.5,30.7,16.4,0000.0,0006.63,0003.62,0003.36
2021-09-19 16:51:00,,0823.8,5.00,0.00,29.3,26.6,00.0,38.4,30.9,16.6,0000.0,0006.50,0003.60,0003.36
2021-09-19 16:52:00,,0823.7,5.00,0.00,29.3,27.0,00.0,38.4,30.9,16.7,0000.0,0006.75,0003.61,0003.38
2021-09-19 16:53:00,,0823.8,5.01,0.00,29.3,27.4,00.0,38.4,31.0,16.8,0000.0,0007.36,0003.61,0003.38
2021-09-19 16:54:00,,0823.8,5.01,0.00,29.3,27.7,00.0,38.4,31.1,16.2,0000.0,0007.31,0003.59,0003.36
2021-09-19 16:55:00,,0823.8,5.00,0.00,29.4,28.0,00.0,38.4,31.2,16.0,0000.0,0007.25,0003.57,0003.35
2021-09-19 16:56:00,,0823.7,5.01,0.00,29.4,28.3,00.0,38.4,31.3,16.2,0000.0,0007.27,0003.56,0003.34
2021-09-19 16:57:00,,0823.7,4.99,0.00,29.5,28.2,00.0,38.4,31.2,15.8,0000.0,0007.29,0003.56,0003.34
2021-09-19 16:58:00,,0823.7,5.00,0.00,29.4,26.7,00.0,38.4,30.9,16.2,0000.0,0007.05,0003.56,0003.34
2021-09-19 16:59:00,,0823.7,5.00,0.00,29.2,26.0,00.0,38.4,30.6,16.3,0000.0,0006.01,0003.53,0003.31
